Regional Weather Roundup
Issued by NWS Northern Indiana

Home | Current Version | Previous Version | Graphics & Text | Print | Product List | Glossary On
Versions: 1 2 3 4 5 6 7 8 9 10 11 12 13 14 15 16 17 18 19 20 21 22 23 24 25 26 27 28 29 30 31 32 33 34 35 36 37 38 39 40 41 42 43 44 45 46 47 48 49 50
000
ASUS43 KIWX 241510
RWRIWX

KIWX WEATHER ROUNDUP
NATIONAL WEATHER SERVICE NORTHERN INDIANA
1100 AM EDT FRI MAR 24 2017

NOTE: "FAIR" INDICATES FEW OR NO CLOUDS BELOW 12,000 FEET WITH NO
SIGNIFICANT WEATHER AND/OR OBSTRUCTIONS TO VISIBILITY.

* THESE STATIONS ARE NOT UNDER NWS QUALITY CONTROL. THEY ALSO MAY NOT
  REPORT WEATHER SUCH AS PRECIPITATION OR FOG.

INZ001>027-241600-
NORTHERN INDIANA

CITY           SKY/WX    TMP DP  RH WIND       PRES   REMARKS
GARY*          PTSUNNY   64  46  52 S14G29    29.96S
VALPARAISO     CLOUDY    65  51  60 SW23G30   30.00S
MICHIGAN CITY* CLOUDY    63  50  63 S17G24    29.98S
LAPORTE*       CLOUDY    61  50  67 SW15G26   29.99F
KNOX*          MOSUNNY   63  30  29 SW21G31   30.00S
SOUTH BEND     CLOUDY    62  50  64 SW21G32   29.98F
ELKHART*       CLOUDY    63  48  59 SW17G29   29.99F
GOSHEN         MOSUNNY   63  49  60 SW25G37   30.00F
MONTICELLO*    SUNNY     65  51  62 S21G26    30.04S
LOGANSPORT*    SUNNY     63  52  67 SW16G25   30.07F
ROCHESTER*     SUNNY     64  52  63 SW16G26   30.04F
WARSAW*        CLOUDY    63  50  63 SW15G22   30.02F
ANGOLA*        SUNNY     61  52  72 SW17      30.01S
FORT WAYNE     CLOUDY    60  49  66 SW28G36   30.06F
HUNTINGTON*    SUNNY     61  49  65 SW16G26   30.06F
PERU/GRISSOM   MOSUNNY   63  53  70 SW20      30.05F
MARION*        MOSUNNY   59  48  67 SW22      30.11S

$$
INZ028>050-241600-
CENTRAL INDIANA

CITY           SKY/WX    TMP DP  RH WIND       PRES   REMARKS
LAFAYETTE      SUNNY     65  53  65 SW21G30   30.06F
KOKOMO*        MOSUNNY   61  51  70 S15       30.09F
MUNCIE*        CLOUDY    62  48  60 SW16G30   30.11F
INDIANAPOLIS   PTSUNNY   66  53  63 S14       30.13S

$$
MIZ043>046-050>051-056>058-064>065-071>073-077>080-241600-
SOUTHWEST LOWER MICHIGAN

CITY           SKY/WX    TMP DP  RH WIND       PRES   REMARKS
BATTLE CREEK   MOSUNNY   61  48  62 SW22G28   29.96S
BENTON HARBOR  MOSUNNY   64  48  56 S13G21    29.93F
COLDWATER*     CLOUDY    61  47  62 SW18G28   29.99S
HILLSDALE*     SUNNY     57  46  67 SW14G24   30.00F
HOLLAND        CLOUDY    56  46  69 SW18G26   29.94S
GRAND RAPIDS   PTSUNNY   56  45  66 SW5       29.94S
KALAMAZOO      CLOUDY    60  46  59 SW16G25   29.96F
STURGIS*       CLOUDY    60  50  68 SW16G22   29.99S
THREE RIVERS*  FAIR      59  47  64 SW18G25   29.97F

$$
OHZ001>008-015>018-024>025-241600-
NORTHWEST OHIO

CITY           SKY/WX    TMP DP  RH WIND       PRES   REMARKS
WAUSEON*       FAIR      59  48  67 SW25G36   30.02F
DEFIANCE       SUNNY     58  46  64 SW20G33   30.05S
FINDLAY        CLOUDY    61  47  59 SW26      30.08S
TOLEDO EXPRESS CLOUDY    59  46  62 SW17G33   30.03S
TOLEDO METCALF CLOUDY    61  49  64 SW22G33   30.05S
LIMA           CLOUDY    59  47  64 SW22G36   30.11F

$$
AND FOR LAKE MICHIGAN COASTAL AND OPEN LAKE BUOY OBSERVATIONS

STATION/POSITION TEMP    WIND        PRES    VSBY  WAVE
                 AIR SEA DIR/SP/G                  HT/PER
                 (F)     (DEG/KT/KT) (MB)    (MI)  (FT/S)
CALUMET HARBOR    61     190/ 12/ 23 1013.4S
MICHIGAN CITY     62     190/ 20/ 23   N/A
BURNS HARBOR      60     190/ 21/ 28 1014.9R

$$
&&




USA.gov is the U.S. government's official web portal to all federal, state and local government web resources and services.